This is the latest recevied weather packets stored in our database for station/object MIDVIL-WX. If no packets are shown the sender has not sent any weather packets the latest 1 day(s).
| Time | Temp. | Humidity | Pressure | Rain* | Wind** | Luminosity | Snow |
|---|---|---|---|---|---|---|---|
| 1777968055 | 11.67° C | 66% | 974.9 hPa | 0 mm | 3.58 m/s, 249° | - | - |
| 1777967127 | 12.22° C | 79% | 974.1 hPa | 0 mm | 4.47 m/s, 253° | - | - |
| 1777966248 | 12.22° C | 79% | 974.1 hPa | 0 mm | 3.58 m/s, 245° | - | - |
| 1777965328 | 12.78° C | 79% | 974.2 hPa | 0 mm | 4.47 m/s, 234° | - | - |
| 1777964457 | 13.33° C | 79% | 974.2 hPa | 0 mm | 4.47 m/s, 226° | - | - |
| 1777963527 | 13.33° C | 80% | 974.5 hPa | 0 mm | 4.02 m/s, 239° | - | - |
| 1777962644 | 13.33° C | 76% | 973.9 hPa | 0 mm | 4.47 m/s, 234° | - | - |
| 1777961728 | 13.89° C | 76% | 973.9 hPa | 0 mm | 4.47 m/s, 241° | - | - |
| 1777960862 | 13.89° C | 76% | 973.9 hPa | 0 mm | 4.92 m/s, 241° | - | - |
| 1777959928 | 14.44° C | 76% | 975.2 hPa | 0 mm | 4.92 m/s, 234° | - | - |
| 1777959050 | 14.44° C | 68% | 973.7 hPa | 0 mm | 4.02 m/s, 225° | - | - |
| 1777958127 | 15° C | 68% | 973.7 hPa | 0 mm | 4.02 m/s, 236° | - | - |
| 1777957253 | 15° C | 68% | 973.7 hPa | 0 mm | 3.58 m/s, 236° | - | - |
| 1777956327 | 15.56° C | 64% | 973.4 hPa | 0 mm | 4.47 m/s, 236° | - | - |
| 1777955449 | 15.56° C | 65% | 973.4 hPa | 0 mm | 4.47 m/s, 223° | - | - |
| 1777954527 | 16.11° C | 65% | 973.7 hPa | 0 mm | 2.24 m/s, 232° | - | - |
| 1777953659 | 16.11° C | 65% | 973.7 hPa | 0 mm | 4.02 m/s, 231° | - | - |
| 1777952724 | 16.67° C | 63% | 973.5 hPa | 0 mm | 4.92 m/s, 225° | - | - |
| 1777951847 | 16.11° C | 65% | 973.5 hPa | 0 mm | 5.36 m/s, 211° | - | - |
| 1777950927 | 16.67° C | 65% | 973.5 hPa | 0 mm | 6.26 m/s, 202° | - | - |
* Rain latest hour (hover to see other rain measurements)
** Current wind speed in m/s (hover to see current wind gust speed)